Tracking 35275 objects as of 9-Sep-2026
HD Live streaming from Space Station
objects crossing your sky now

DMSP 5D-2 F11 DEB


DMSP 5D-2 F11 DEB is no longer on orbit


NORAD ID: 35531
Int'l Code: 1991-082CN
Launch date: November 28, 1991
Source: United States (US)
Launch site: AIR FORCE WESTERN TEST RANGE (AFWTR)
Decay date: 2025-02-14

Note: This is SATELLITE DEBRIS
Your satellite tracking list
Your tracking list is empty




NASA's NSSDC Master Catalog

Two Line Element Set (TLE):
1 35531U 91082CN  14041.20713266  .00007502  00000-0  27546-2 0  9994
2 35531  98.4985  51.9122 0029904 151.3447  25.6317 14.32739853402567
Source of the keplerian elements: AFSPC